�������l�o���
Date,Time,MP-1(��Sv/h),MP-2(��Sv/h),MP-3(��Sv/h),MP-4(��Sv/h),MP-5(��Sv/h),MP-6(��Sv/h),MP-7(��Sv/h),����,����(m/s),���J
2021/04/06,00:00,0.168,0.148,0.241,0.229,0.231,0.131,0.081,�k�k��,6.6,��
2021/04/06,00:10,0.167,0.149,0.244,0.229,0.230,0.130,0.080,�k��,7.0,��
2021/04/06,00:20,0.167,0.149,0.243,0.228,0.231,0.130,0.081,�k�k��,8.8,��
2021/04/06,00:30,0.167,0.149,0.242,0.230,0.230,0.131,0.080,�k�k��,8.2,��
2021/04/06,00:40,0.167,0.150,0.242,0.230,0.230,0.130,0.081,�k�k��,7.9,��
2021/04/06,00:50,0.166,0.149,0.244,0.230,0.232,0.130,0.080,�k�k��,9.0,�L
2021/04/06,01:00,0.168,0.149,0.242,0.229,0.231,0.131,0.081,�k�k��,9.5,��
2021/04/06,01:10,0.168,0.148,0.243,0.231,0.231,0.131,0.081,�k�k��,9.3,��
2021/04/06,01:20,0.167,0.149,0.242,0.229,0.232,0.131,0.081,�k�k��,8.1,��
2021/04/06,01:30,0.167,0.149,0.244,0.230,0.230,0.132,0.082,�k�k��,9.0,��
2021/04/06,01:40,0.167,0.149,0.242,0.229,0.232,0.131,0.081,�k�k��,9.0,�L
2021/04/06,01:50,0.167,0.148,0.243,0.230,0.231,0.131,0.081,�k�k��,9.0,�L
2021/04/06,02:00,0.168,0.150,0.243,0.230,0.232,0.131,0.080,�k�k��,9.0,�L
2021/04/06,02:10,0.166,0.149,0.243,0.230,0.230,0.130,0.081,�k�k��,8.2,�L
2021/04/06,02:20,0.169,0.149,0.244,0.229,0.232,0.131,0.081,�k�k��,7.9,�L
2021/04/06,02:30,0.168,0.150,0.244,0.230,0.232,0.131,0.081,�k��,7.8,�L
2021/04/06,02:40,0.169,0.149,0.244,0.229,0.231,0.131,0.081,�k�k��,8.1,�L
2021/04/06,02:50,0.168,0.149,0.243,0.231,0.231,0.132,0.081,�k�k��,8.5,�L
2021/04/06,03:00,0.168,0.150,0.244,0.231,0.231,0.131,0.081,�k��,8.2,�L
2021/04/06,03:10,0.168,0.150,0.243,0.231,0.232,0.131,0.081,�k��,8.2,�L
2021/04/06,03:20,0.169,0.149,0.244,0.229,0.232,0.132,0.081,�k��,7.3,��
2021/04/06,03:30,0.169,0.150,0.244,0.229,0.232,0.131,0.081,�k��,7.3,��
2021/04/06,03:40,0.168,0.149,0.242,0.230,0.232,0.131,0.081,�k�k��,7.2,��
2021/04/06,03:50,0.168,0.149,0.244,0.230,0.232,0.130,0.080,�k�k��,6.7,��
2021/04/06,04:00,0.167,0.149,0.243,0.230,0.231,0.131,0.081,�k�k��,6.9,��
2021/04/06,04:10,0.168,0.150,0.242,0.230,0.232,0.130,0.081,�k�k��,7.9,��
2021/04/06,04:20,0.167,0.149,0.242,0.230,0.231,0.131,0.081,�k��,7.3,��
2021/04/06,04:30,0.168,0.149,0.243,0.230,0.232,0.131,0.080,�k�k��,7.7,��
2021/04/06,04:40,0.168,0.149,0.243,0.230,0.231,0.131,0.080,�k�k��,6.6,��
2021/04/06,04:50,0.168,0.148,0.242,0.231,0.231,0.131,0.080,�k�k��,7.3,��
2021/04/06,05:00,0.167,0.148,0.243,0.230,0.231,0.131,0.080,�k�k��,7.1,��
2021/04/06,05:10,0.168,0.149,0.243,0.230,0.231,0.131,0.080,�k�k��,7.1,��
2021/04/06,05:20,0.167,0.149,0.243,0.230,0.232,0.131,0.081,�k�k��,5.8,��
2021/04/06,05:30,0.168,0.148,0.243,0.230,0.231,0.131,0.081,�k�k��,5.1,��
2021/04/06,05:40,0.168,0.149,0.245,0.231,0.231,0.130,0.080,�k�k��,6.2,��
2021/04/06,05:50,0.168,0.150,0.243,0.229,0.232,0.130,0.081,�k,5.6,��
2021/04/06,06:00,0.168,0.149,0.242,0.229,0.231,0.130,0.081,�k,6.9,��
2021/04/06,06:10,0.168,0.149,0.242,0.229,0.231,0.131,0.080,�k,8.4,��
2021/04/06,06:20,0.168,0.149,0.242,0.231,0.232,0.131,0.080,�k,9.2,��
2021/04/06,06:30,0.169,0.149,0.243,0.230,0.232,0.130,0.081,�k,7.5,��
2021/04/06,06:40,0.168,0.149,0.244,0.231,0.231,0.131,0.080,�k,7.4,��
2021/04/06,06:50,0.168,0.149,0.242,0.230,0.232,0.131,0.081,�k,7.8,��
2021/04/06,07:00,0.168,0.149,0.244,0.230,0.231,0.131,0.081,�k,7.9,��
2021/04/06,07:10,0.168,0.149,0.243,0.230,0.231,0.130,0.081,�k,7.1,��
2021/04/06,07:20,0.168,0.148,0.242,0.231,0.231,0.131,0.080,�k,6.9,��
2021/04/06,07:30,0.167,0.150,0.243,0.230,0.231,0.130,0.081,�k,7.5,��
2021/04/06,07:40,0.167,0.149,0.244,0.231,0.231,0.130,0.081,�k,8.7,��
2021/04/06,07:50,0.167,0.149,0.243,0.230,0.231,0.130,0.080,�k,8.3,��
2021/04/06,08:00,0.167,0.149,0.243,0.229,0.231,0.131,0.080,�k,9.2,��
2021/04/06,08:10,0.168,0.149,0.242,0.230,0.232,0.130,0.081,�k,7.6,��
2021/04/06,08:20,0.169,0.149,0.243,0.229,0.233,0.130,0.081,�k,8.5,��
2021/04/06,08:30,0.168,0.148,0.242,0.228,0.230,0.131,0.080,�k,7.0,��
2021/04/06,08:40,0.167,0.149,0.243,0.229,0.232,0.130,0.081,�k,8.7,��
2021/04/06,08:50,0.168,0.149,0.243,0.230,0.232,0.131,0.080,�k,7.6,��
2021/04/06,09:00,0.168,0.149,0.243,0.228,0.232,0.130,0.081,�k,7.3,��
2021/04/06,09:10,0.167,0.149,0.244,0.232,0.233,0.130,0.081,�k,6.1,��
2021/04/06,09:20,0.168,0.149,0.243,0.230,0.230,0.131,0.081,�k,7.1,��
2021/04/06,09:30,0.168,0.150,0.243,0.230,0.232,0.130,0.081,�k,6.3,��
2021/04/06,09:40,0.168,0.150,0.244,0.231,0.232,0.131,0.081,�k�k��,6.8,��
2021/04/06,09:50,0.169,0.149,0.243,0.229,0.233,0.131,0.080,�k,4.4,��
2021/04/06,10:00,0.169,0.149,0.242,0.230,0.233,0.130,0.080,�k,5.3,��
2021/04/06,10:10,0.168,0.148,0.243,0.231,0.232,0.131,0.080,�k,4.9,��
2021/04/06,10:20,0.168,0.149,0.244,0.230,0.233,0.131,0.080,�k,5.8,��
2021/04/06,10:30,0.168,0.150,0.244,0.232,0.233,0.132,0.081,�k,5.7,��
2021/04/06,10:40,0.167,0.149,0.245,0.229,0.233,0.132,0.081,�k�k��,7.1,��
2021/04/06,10:50,0.168,0.150,0.243,0.230,0.231,0.130,0.081,�k�k��,5.6,��
2021/04/06,11:00,0.168,0.150,0.243,0.230,0.233,0.131,0.080,�k,5.4,��
2021/04/06,11:10,0.167,0.148,0.243,0.231,0.232,0.131,0.081,�k,5.1,��
2021/04/06,11:20,0.168,0.149,0.243,0.230,0.231,0.132,0.081,�k,8.3,��
2021/04/06,11:30,0.168,0.149,0.243,0.230,0.232,0.131,0.081,�k,7.9,��
2021/04/06,11:40,0.168,0.150,0.244,0.230,0.232,0.131,0.080,�k,7.7,��
2021/04/06,11:50,0.168,0.149,0.244,0.231,0.234,0.131,0.080,�k,8.2,��
2021/04/06,12:00,0.169,0.149,0.244,0.231,0.231,0.130,0.080,�k,7.1,��
2021/04/06,12:10,0.167,0.149,0.245,0.230,0.234,0.131,0.080,�k,7.5,��
2021/04/06,12:20,0.169,0.149,0.245,0.232,0.231,0.131,0.081,�k,7.7,��
2021/04/06,12:30,0.169,0.148,0.244,0.230,0.232,0.131,0.081,�k,7.8,��
2021/04/06,12:40,0.168,0.149,0.245,0.230,0.231,0.131,0.080,�k,8.1,��
2021/04/06,12:50,0.169,0.148,0.244,0.231,0.233,0.131,0.081,�k,8.4,��
2021/04/06,13:00,0.169,0.149,0.244,0.231,0.232,0.132,0.081,�k,7.7,��
2021/04/06,13:10,0.168,0.150,0.245,0.231,0.235,0.132,0.081,�k,8.1,��
2021/04/06,13:20,0.169,0.149,0.244,0.231,0.233,0.131,0.081,�k,6.8,��
2021/04/06,13:30,0.168,0.150,0.245,0.233,0.233,0.132,0.081,�k,7.3,��
2021/04/06,13:40,0.169,0.149,0.246,0.232,0.232,0.131,0.081,�k,7.5,��
2021/04/06,13:50,0.169,0.149,0.246,0.231,0.234,0.131,0.081,�k,6.3,��
2021/04/06,14:00,0.169,0.149,0.245,0.232,0.233,0.131,0.081,�k,6.4,��
2021/04/06,14:10,0.168,0.150,0.246,0.231,0.233,0.132,0.082,�k,7.1,��
2021/04/06,14:20,0.170,0.150,0.245,0.234,0.234,0.131,0.081,�k,5.1,��
2021/04/06,14:30,0.169,0.150,0.245,0.233,0.231,0.131,0.081,�k,6.4,��
2021/04/06,14:40,0.168,0.149,0.245,0.233,0.235,0.132,0.081,�k,8.3,��
2021/04/06,14:50,0.169,0.149,0.247,0.232,0.233,0.131,0.081,�k,6.6,��
2021/04/06,15:00,0.169,0.149,0.245,0.230,0.234,0.132,0.081,�k,6.2,��
2021/04/06,15:10,0.168,0.150,0.246,0.233,0.233,0.131,0.081,�k,7.5,��
2021/04/06,15:20,0.167,0.150,0.247,0.232,0.234,0.132,0.082,�k,6.7,��
2021/04/06,15:30,0.169,0.150,0.244,0.233,0.235,0.131,0.081,�k,7.8,��
2021/04/06,15:40,0.168,0.151,0.245,0.233,0.233,0.130,0.081,�k,7.7,��
2021/04/06,15:50,0.168,0.150,0.246,0.232,0.234,0.132,0.081,�k,8.5,��
2021/04/06,16:00,0.169,0.151,0.245,0.232,0.234,0.133,0.081,�k,7.3,��
2021/04/06,16:10,0.169,0.151,0.246,0.232,0.233,0.131,0.081,�k,6.1,��
2021/04/06,16:20,0.170,0.149,0.245,0.232,0.234,0.132,0.081,�k,6.8,��
2021/04/06,16:30,0.169,0.150,0.246,0.232,0.233,0.133,0.081,�k,5.3,��
2021/04/06,16:40,0.169,0.150,0.245,0.233,0.233,0.132,0.081,�k,5.6,��
2021/04/06,16:50,0.169,0.149,0.247,0.232,0.235,0.132,0.081,�k�k��,4.4,��
2021/04/06,17:00,0.169,0.150,0.246,0.232,0.233,0.131,0.081,�k,5.4,��
2021/04/06,17:10,0.169,0.150,0.246,0.232,0.234,0.132,0.082,�k,5.2,��
2021/04/06,17:20,0.169,0.149,0.246,0.232,0.233,0.132,0.081,�k,5.5,��
2021/04/06,17:30,0.169,0.150,0.246,0.232,0.234,0.132,0.081,�k,5.2,��
2021/04/06,17:40,0.169,0.150,0.246,0.233,0.235,0.131,0.081,�k,5.1,��
2021/04/06,17:50,0.168,0.150,0.245,0.231,0.234,0.132,0.081,�k,5.4,��
2021/04/06,18:00,0.169,0.150,0.247,0.233,0.233,0.131,0.081,�k,4.8,��
2021/04/06,18:10,0.170,0.151,0.245,0.232,0.234,0.132,0.081,�k�k��,3.1,��
2021/04/06,18:20,0.169,0.150,0.247,0.232,0.232,0.131,0.082,�k�k��,5.6,��
2021/04/06,18:30,0.169,0.149,0.246,0.233,0.233,0.132,0.081,�k��,6.2,��
2021/04/06,18:40,0.170,0.150,0.245,0.233,0.233,0.132,0.081,�k�k��,6.7,��
2021/04/06,18:50,0.169,0.149,0.246,0.233,0.233,0.132,0.081,�k�k��,6.9,��
2021/04/06,19:00,0.168,0.150,0.247,0.232,0.232,0.132,0.081,�k��,6.6,��
2021/04/06,19:10,0.170,0.150,0.247,0.232,0.233,0.132,0.081,�k�k��,6.6,��
2021/04/06,19:20,0.169,0.150,0.246,0.233,0.233,0.132,0.081,�k��,6.2,��
2021/04/06,19:30,0.170,0.150,0.246,0.233,0.232,0.133,0.081,�k��,6.2,��
2021/04/06,19:40,0.169,0.150,0.246,0.233,0.235,0.132,0.081,�k��,6.7,��
2021/04/06,19:50,0.169,0.150,0.247,0.233,0.233,0.131,0.081,�k��,7.1,��
2021/04/06,20:00,0.168,0.151,0.246,0.234,0.233,0.132,0.081,�k��,7.6,��
2021/04/06,20:10,0.169,0.150,0.245,0.234,0.234,0.131,0.080,�k��,6.2,��
2021/04/06,20:20,0.171,0.150,0.247,0.232,0.233,0.132,0.082,�k��,7.3,��
2021/04/06,20:30,0.171,0.151,0.245,0.234,0.233,0.132,0.081,�k��,7.0,��
2021/04/06,20:40,0.169,0.150,0.247,0.233,0.233,0.132,0.081,�k��,7.0,��
2021/04/06,20:50,0.170,0.151,0.246,0.233,0.234,0.132,0.081,�k��,7.1,��
2021/04/06,21:00,0.169,0.150,0.247,0.232,0.233,0.131,0.080,�k��,7.4,��
2021/04/06,21:10,0.169,0.149,0.247,0.233,0.233,0.132,0.082,�k��,7.5,��
2021/04/06,21:20,0.170,0.150,0.246,0.232,0.233,0.131,0.081,�k��,6.8,��
2021/04/06,21:30,0.170,0.151,0.246,0.233,0.232,0.132,0.082,�k��,6.6,��
2021/04/06,21:40,0.169,0.150,0.247,0.233,0.233,0.131,0.081,�k��,6.3,��
2021/04/06,21:50,0.169,0.150,0.247,0.233,0.233,0.131,0.081,�k��,6.8,��
2021/04/06,22:00,0.170,0.150,0.245,0.232,0.234,0.131,0.082,�k��,7.4,��
2021/04/06,22:10,0.169,0.149,0.246,0.232,0.233,0.131,0.081,�k��,7.3,��
2021/04/06,22:20,0.169,0.150,0.245,0.233,0.232,0.132,0.081,�k��,7.4,��
2021/04/06,22:30,0.169,0.150,0.247,0.233,0.234,0.132,0.081,�k��,7.4,��
2021/04/06,22:40,0.170,0.151,0.246,0.233,0.234,0.132,0.081,�k��,8.1,��
2021/04/06,22:50,0.169,0.149,0.246,0.232,0.233,0.132,0.082,�k��,6.8,��
2021/04/06,23:00,0.169,0.150,0.245,0.233,0.233,0.132,0.082,�k��,7.3,��
2021/04/06,23:10,0.170,0.150,0.246,0.233,0.233,0.132,0.081,�k��,7.2,��
2021/04/06,23:20,0.170,0.150,0.246,0.233,0.233,0.131,0.081,�k��,7.6,��
2021/04/06,23:30,0.169,0.150,0.246,0.233,0.232,0.132,0.081,�k��,7.2,��
2021/04/06,23:40,0.170,0.150,0.246,0.234,0.234,0.132,0.081,�k��,6.7,��
2021/04/06,23:50,0.170,0.152,0.246,0.233,0.233,0.132,0.081,�k��,6.4,��
